Погода в Тарифе

Испания     36°00′52″N   5°36′17″W
темп.,
°C
ветер,
м/с
пор.,
м/с
влажн.,
%
обл.,
%
осадки,
мм/ч
давл.,
гПа
погр.,
м
30 ноября, вт
вт3001:00+13зюз58765 0.0 1025571
04:00+13з467732 0.0 1025380
07:00+11сз337511 0.1 1025107
10:00+13зсз23660 0.0 1026181
13:00+16з33550 0.0 1026734
16:00+15зюз43570 0.0 1025582
19:00+13з33675 0.0 1026163
22:00+12з22655 0.0 1027147
1 декабря, ср
ср101:00+11зсз12645 0.0 102695
04:00+11зсз22655 0.0 1025133
07:00+11з34705 0.0 1025208
10:00+12з56675 0.0 1026370
13:00+15з68593 0.0 1025826
16:00+15з811640 0.0 10221029
19:00+13з710750 0.0 1023584
22:00+13з710740 0.0 1023645
2 декабря, чт
чт201:00+14зюз9127360 0.0 10201013
04:00+14з91383100 0.6 10181028
07:00+12зсз8157771 1.3 10171092
10:00+11зсз7127856 0.2 1018890
13:00+14сз696345 0.5 10171352
16:00+14сз68555 0.0 10161402
19:00+12сз37582 0.0 1019329
22:00+11сз33580 0.0 1020129
3 декабря, пт
пт301:00+10сз34630 0.0 1022110
04:00+10зсз23630 0.0 1022122
07:00+9з56650 0.0 1023238
10:00+11зсз67570 0.0 1025322
13:00+14з68470 0.0 1024627
16:00+14з78460 0.0 1023769
19:00+11з67610 0.0 1025371
22:00+11зюз56580 0.0 1025329
4 декабря, сб
сб401:00+11зюз57610 0.0 1025316
04:00+10з57620 0.0 1025290
07:00+10з57650 0.0 1025262
10:00+12з67630 0.0 1026255
13:00+15з78590 0.0 1026591
16:00+16з89630 0.0 1024855
19:00+13з68820 0.0 1025370
22:00+13зсз68875 0.0 1025374